FW4043 Weather Reports


Display with metric or nautical units.
time (UTC)temp
F
wind
direction
speed
MPH
gust
MPH
rain 1hr
in
rain 24hr
in
rain mn
in
humidity
%
barometer
mb
20260902224537 91 143 10.0 18.0 0.00 0.00 0.00 65 1013.1
20260902223043 92 183 11.0 18.0 0.00 0.00 0.00 66 1013.2
20260902221554 92 148 9.0 15.0 0.00 0.00 0.00 66 1013.2
20260902220006 93 182 11.0 18.0 0.00 0.00 0.00 66 1013.1
20260902214530 93 167 11.0 16.0 0.00 0.00 0.00 65 1013.2
20260902213014 94 147 9.0 15.0 0.00 0.00 0.00 64 1013.3
20260902211517 95 145 6.0 15.0 0.00 0.00 0.00 66 1013.4
20260902210018 94 147 8.0 19.0 0.00 0.00 0.00 66 1013.5
20260902204522 93 126 6.0 16.0 0.00 0.00 0.00 67 1013.7
20260902203035 94 147 9.0 18.0 0.00 0.00 0.00 66 1014.0
20260902201541 94 251 3.0 14.0 0.00 0.00 0.00 68 1014.0
20260902200048 94 215 4.0 11.0 0.00 0.00 0.00 68 1014.3
20260902194553 94 240 5.0 11.0 0.00 0.00 0.00 69 1014.4
20260902193054 93 234 1.0 9.0 0.00 0.00 0.00 72 1014.9
20260902191559 93 100 2.0 8.0 0.00 0.00 0.00 73 1015.0
20260902190058 92 160 5.0 13.0 0.00 0.00 0.00 73 1015.1
20260902184604 91 323 1.0 11.0 0.00 0.00 0.00 75 1015.2
20260902183009 91 243 1.0 12.0 0.00 0.00 0.00 77 1015.5
20260902181507 90 332 4.0 10.0 0.00 0.00 0.00 77 1015.7
20260902180012 90 257 2.0 11.0 0.00 0.00 0.00 79 1016.0
20260902174521 90 234 5.0 9.0 0.00 0.00 0.00 80 1016.3
20260902173023 89 12 4.0 10.0 0.00 0.00 0.00 82 1016.6
20260902171533 89 246 2.0 9.0 0.00 0.00 0.00 83 1016.8
20260902170026 88 355 3.0 10.0 0.00 0.00 0.00 84 1016.9
20260902164530 87 206 3.0 7.0 0.00 0.00 0.00 85 1017.0
20260902163032 87 248 2.0 6.0 0.00 0.00 0.00 86 1017.1
20260902161535 86 269 1.0 9.0 0.00 0.00 0.00 87 1017.2
20260902160058 86 290 4.0 9.0 0.00 0.00 0.00 87 1017.1
20260902154540 85 236 2.0 7.0 0.00 0.00 0.00 88 1017.3
20260902153039 84 216 2.0 9.0 0.00 0.00 0.00 88 1017.3
20260902151537 84 287 2.0 8.0 0.00 0.00 0.00 89 1017.1
20260902150039 84 262 4.0 11.0 0.00 0.00 0.00 89 1016.9
20260902144555 83 239 5.0 9.0 0.00 0.00 0.00 89 1016.9
20260902143003 83 238 0.0 9.0 0.00 0.00 0.00 89 1016.9
20260902141512 82 259 1.0 6.0 0.00 0.00 0.00 89 1016.9
20260902140020 82 292 0.0 4.0 0.00 0.00 0.00 89 1017.1
20260902134527 81 236 1.0 5.0 0.00 0.00 0.00 89 1017.0
20260902133035 81 295 2.0 7.0 0.00 0.00 0.00 89 1016.7
20260902131519 81 254 0.0 1.0 0.00 0.00 0.00 89 1016.8
20260902130020 81 265 0.0 0.0 0.00 0.00 0.00 89 1016.6
20260902124509 81 275 0.0 4.0 0.00 0.00 0.00 89 1016.3
20260902123011 81 148 0.0 1.0 0.00 0.00 0.00 89 1016.0
20260902121512 81 150 0.0 2.0 0.00 0.00 0.00 89 1015.7
20260902120005 81 212 0.0 2.0 0.00 0.00 0.00 88 1015.7
20260902114511 81 223 0.0 0.0 0.00 0.00 0.00 88 1015.6
20260902113056 81 224 0.0 1.0 0.00 0.00 0.00 89 1015.6
20260902111508 81 256 0.0 2.0 0.00 0.00 0.00 88 1015.7
20260902110011 81 255 0.0 2.0 0.00 0.00 0.00 88 1015.5
20260902104522 81 254 0.0 4.0 0.00 0.00 0.00 88 1015.4
20260902103023 81 219 1.0 5.0 0.00 0.00 0.00 88 1015.4
20260902101539 81 245 0.0 2.0 0.00 0.00 0.00 88 1015.3
20260902100036 81 240 0.0 4.0 0.00 0.00 0.00 88 1015.3
20260902094536 81 275 0.0 6.0 0.00 0.00 0.00 88 1015.4
20260902093046 81 272 1.0 5.0 0.00 0.00 0.00 88 1015.4
20260902091610 81 296 1.0 3.0 0.00 0.00 0.00 88 1015.3
20260902090010 81 232 0.0 3.0 0.00 0.00 0.00 87 1015.2
20260902084512 81 270 0.0 8.0 0.00 0.00 0.00 87 1015.3
20260902083020 81 58 0.0 7.0 0.00 0.00 0.00 87 1015.4
20260902081526 81 271 1.0 5.0 0.00 0.00 0.00 87 1015.4
20260902080033 81 236 1.0 6.0 0.00 0.00 0.00 87 1015.5
20260902074520 81 223 0.0 6.0 0.00 0.00 0.00 86 1015.3
20260902073034 81 158 1.0 9.0 0.00 0.00 0.00 86 1015.4
20260902071512 81 208 2.0 6.0 0.00 0.00 0.00 86 1015.5
20260902070014 82 290 1.0 7.0 0.00 0.00 0.00 86 1015.4
20260902064533 82 217 4.0 8.0 0.00 0.00 0.00 86 1015.5
20260902063022 82 240 0.0 3.0 0.00 0.00 0.00 85 1015.5
20260902061528 82 268 0.0 5.0 0.00 0.00 0.00 85 1015.5
20260902060030 82 246 0.0 5.0 0.00 0.00 0.00 85 1015.3
20260902054544 83 288 0.0 5.0 0.00 0.00 0.00 84 1015.6
20260902053042 83 279 0.0 5.0 0.00 0.00 0.00 84 1015.6
20260902051554 83 270 0.0 5.0 0.00 0.00 0.00 84 1015.5
20260902050051 83 289 0.0 4.0 0.00 0.00 0.00 84 1015.5
20260902044600 83 301 2.0 5.0 0.00 0.00 0.00 84 1015.5
20260902043100 83 294 3.0 8.0 0.00 0.00 0.00 83 1015.4
20260902041603 84 271 3.0 7.0 0.00 0.00 0.00 83 1015.6
20260902041501 84 256 2.0 7.0 0.00 0.00 0.00 83 1015.7
20260902040009 84 275 4.0 8.0 0.00 0.00 0.00 82 1015.7
20260902034513 84 248 3.0 7.0 0.00 0.00 0.00 81 1015.8
20260902033037 84 273 1.0 6.0 0.00 0.00 0.00 80 1015.7
20260902031540 85 242 3.0 5.0 0.00 0.00 0.00 80 1015.5
20260902030026 85 254 2.0 5.0 0.00 0.00 0.00 79 1015.2
20260902024531 85 255 1.0 5.0 0.00 0.00 0.00 78 1015.0
20260902023020 84 157 0.0 0.0 0.00 0.00 0.00 78 1015.0
20260902021512 84 157 0.0 2.0 0.00 0.00 0.00 78 1014.8
20260902020037 84 157 0.0 2.0 0.00 0.00 0.00 77 1014.6
20260902014506 84 157 0.0 1.0 0.00 0.00 0.00 77 1014.5
20260902013010 84 119 0.0 2.0 0.00 0.00 0.00 77 1014.3
20260902011517 85 77 0.0 1.0 0.00 0.00 0.00 76 1014.2
20260902010023 85 73 0.0 1.0 0.00 0.00 0.00 75 1014.3
20260902004519 85 73 0.0 2.0 0.00 0.00 0.00 75 1014.5
20260902003024 86 73 1.0 6.0 0.00 0.00 0.00 74 1014.5
20260902001517 87 132 0.0 2.0 0.00 0.00 0.00 73 1014.3
20260902000028 87 132 1.0 2.0 0.00 0.00 0.00 73 1014.2
20260901234528 87 132 2.0 3.0 0.00 0.00 0.00 73 1014.1
20260901233030 87 93 0.0 4.0 0.00 0.00 0.00 73 1014.3
20260901231544 87 90 2.0 6.0 0.00 0.00 0.00 73 1014.4
20260901230054 87 68 2.0 5.0 0.00 0.00 0.00 73 1014.5